Tracking 22130 objects as of 21-Jan-2021
HD Live streaming from Space Station
objects crossing your sky now

STARLINK-1847

Track STARLINK-1847 now!
10-day predictions
STARLINK-1847 is classified as:


NORAD ID: 46739
Int'l Code: 2020-074A
Perigee: 553.1 km
Apogee: 555.8 km
Inclination: 53.1 °
Period: 95.6 minutes
Semi major axis: 6925 km
RCS: Unknown
Launch date: October 24, 2020
Source: United States (US)
Launch site: AIR FORCE EASTERN TEST RANGE (AFETR)
aabbcc
Your satellite tracking list
Your tracking list is empty




NASA's NSSDC Master Catalog

Two Line Element Set (TLE):
1 46739U 20074A   21021.58335648  .00033916  00000-0  22871-2 0  9994
2 46739  53.0522  90.3151 0001998  68.2717 244.0601 15.06363157  1752
Source of the keplerian elements: AFSPC